Showing default

ASNARO, 40298

Orbit data source: Space-Track

ASNARO, 40298 is a payload satellite owned by J-spacesystems (JP) in SSO that was launched on Thu, 06 Nov 2014 UTC via a DNEPR launch vehicle from the Orenburg, Russia (OREN). Payload-class satellites include a variety of spacecraft equipped with specific instruments for various scientific and technological missions. These include communications satellites like Starlink; space stations such as the ISS; scientific satellites like the Hubble; Earth observation satellites from companies like Planet Labs, Umbra, and HawkEye 360; GPS; miniature CubeSats for education and research; and military/defense satellites.

Loading next visibility...
Identifier
40298, 2014-070A
Orbit
SSO
Country
Flag of JPJP / JPN
Related business
Manufacturer
NEC Toshiba/Fuchu
Mission
Operational Civil Imaging
Bus & Motor
NEXTAR-300L, AOCS?
Mass
495 kg wet, 450 kg dry
Launch date (UTC)
2014-11-06 (11 years ago)
Launch vehicle
DNEPR
Launch site
Orenburg, Russia (OREN)
Object type
Payload
Rocket body
Debris
Shape & HBR
Cyl + 2 Pan, 1.8 m
Radar Cross Section
9.327 m², Large (>1 m²)

Expand to show TLE details & history
Last TLE update: 7 hours ago

TLE from 7 hours ago
0 ASNARO
1 40298U 14070A   26123.97390818  .00006750  00000-0  32151-3 0  9997
2 40298  97.3457 201.2732 0002306 315.9481  44.1570 15.19449756637298
Epoch: 2026-05-03T23:22Z
TLE epoch observation values (Epoch: 2026-05-03T23:22:25.666Z)
Latitude
-0.00004°
Longitude
-11.2035°
Altitude
509.455 km
Speed
7.61 km/s
True Right ascension
13h 25m 05s
True Declination
0° 00' 00"
Sunlit
Object was in full shadow at epoch
Visualization orbit readout
Latitude
Unknown
Longitude
Unknown
Altitude
Unknown
Speed
Unknown
Apparent Right ascension
Unknown
Apparent Declination
Unknown
Sunlit
N/A
Visualization observer readout
Local Sidereal Time
13:57:13
Azimuth
Unknown
Elevation
Unknown
Doppler factor
Unknown
Orbital elements
Apogee altitude
506.054 km
Perigee altitude
502.879 km
Semi-major axis
6,882.603 km
Eccentricity
0.00023
Inclination
97.3457°
RAAN
201.2732°
Arg. of periapsis
315.9481°
True anomaly
44.17541°
Mean anomaly
44.157°
Eccentric anomaly
44.16621°
Mean motion
3.80114 °/min
Orbital period
94.71 mins
BSTAR
0.00032151
Loading maneuver chart data...
Computing Atmospheric mass density...
Loading historical data...
Loading historical data...
Loading historical data...
Loading historical data...
Loading historical data...
Loading historical data...
Loading historical data...

Documentation

Showing up to 5 results
|